Tuscaloosa, AL

11:36 AM CDT on April 24, 2018 (GMT -0500)
Tuscaloosa Municipal

Weather History for KTCL - October, 2011

Change the Weather History Date:

Sunday, October 2, 2011

  Actual Average Record
Temperature  
Mean Temperature 58 °F 69 °F  
Max Temperature 73 °F 82 °F 95 °F (1954)
Min Temperature 43 °F 57 °F 35 °F (1984)
Degree Days  
Heating Degree Days 7 1  
Month to date heating degree days 13 2  
Since 1 July heating degree days 14 9  
Growing Degree Days 7 (Base 50)    
Moisture  
Dew Point 41 °F    
Average Humidity 58    
Maximum Humidity 89    
Minimum Humidity 27    
Precipitation  
Precipitation 0.00 in 0.12 in 0.61 in (1957)
Month to date precipitation 0.00 0.24  
Year to date precipitation 39.42 39.63  
Sea Level Pressure  
Sea Level Pressure 30.18 in    
Wind  
Wind Speed 4 mph (NNW)    
Max Wind Speed 16 mph    
Max Gust Speed 21 mph    
Visibility 10 miles    
Events      
T = Trace of Precipitation, MM = Missing Value Source: NWS Daily Summary

Daily Weather History Graph

Daily Weather History Graph

Search for Another Location

Airport or City:

Astronomy

Oct. 02, 2011 Rise Set
Actual Time 6:45 AM CDT 6:33 PM CDT
Civil Twilight 6:20 AM CDT 6:58 PM CDT
Nautical Twilight 5:51 AM CDT 7:27 PM CDT
Astronomical Twilight 5:22 AM CDT 7:56 PM CDT
Moon 12:33 PM CDT (10/2) 10:49 PM CDT (10/2)
Length of Visible Light 12h 38m
Length of Day
11h 48m
Waxing Crescent, 35% of the Moon is Illuminated
Oct 2
Waxing Crescent
Oct 3
First Quarter
Oct 11
Full
Oct 19
Last Quarter
Oct 26
New

Hourly Weather History & Observations

Time (CDT) Temp. Dew Point Humidity Pressure Visibility Wind Dir Wind Speed Gust Speed Precip Events Conditions
12:53 AM 51.1 °F 44.1 °F 77% 30.17 in 10.0 mi NNW 4.6 mph - N/A   Clear
1:53 AM 50.0 °F 42.1 °F 74% 30.17 in 10.0 mi Calm Calm - N/A   Clear
2:53 AM 48.0 °F 42.1 °F 80% 30.17 in 10.0 mi Calm Calm - N/A   Clear
3:53 AM 46.0 °F 42.1 °F 86% 30.16 in 10.0 mi Calm Calm - N/A   Clear
4:53 AM 44.6 °F 41.0 °F 87% 30.18 in 10.0 mi Calm Calm - N/A   Clear
5:53 AM 44.1 °F 39.9 °F 85% 30.19 in 10.0 mi Calm Calm - N/A   Clear
6:53 AM 42.8 °F 39.2 °F 87% 30.20 in 10.0 mi Calm Calm - N/A   Clear
7:53 AM 48.9 °F 43.0 °F 80% 30.22 in 10.0 mi NE 4.6 mph - N/A   Clear
8:53 AM 55.4 °F 42.8 °F 63% 30.23 in 10.0 mi North 8.1 mph - N/A   Clear
9:53 AM 61.0 °F 42.1 °F 50% 30.23 in 10.0 mi North 8.1 mph - N/A   Clear
10:53 AM 64.4 °F 39.2 °F 40% 30.23 in 10.0 mi NNE 11.5 mph - N/A   Clear
11:53 AM 66.9 °F 39.0 °F 36% 30.21 in 10.0 mi North 6.9 mph - N/A   Clear
12:53 PM 69.1 °F 37.9 °F 32% 30.19 in 10.0 mi North 10.4 mph - N/A   Clear
1:53 PM 70.0 °F 37.9 °F 31% 30.15 in 10.0 mi NW 10.4 mph - N/A   Clear
2:53 PM 72.0 °F 37.9 °F 29% 30.14 in 10.0 mi NW 10.4 mph - N/A   Clear
3:53 PM 72.0 °F 35.1 °F 26% 30.13 in 10.0 mi NW 8.1 mph - N/A   Clear
4:53 PM 71.1 °F 35.1 °F 27% 30.13 in 10.0 mi NW 9.2 mph - N/A   Clear
5:53 PM 70.0 °F 36.0 °F 29% 30.14 in 10.0 mi North 5.8 mph - N/A   Clear
6:53 PM 59.0 °F 46.0 °F 62% 30.14 in 10.0 mi Calm Calm - N/A   Clear
7:53 PM 55.9 °F 46.0 °F 69% 30.16 in 10.0 mi Calm Calm - N/A   Clear
8:53 PM 53.1 °F 46.0 °F 77% 30.17 in 10.0 mi Calm Calm - N/A   Clear
9:53 PM 52.0 °F 46.0 °F 80% 30.18 in 10.0 mi Calm Calm - N/A   Clear
10:53 PM 50.0 °F 45.0 °F 83% 30.19 in 10.0 mi Calm Calm - N/A   Clear
11:53 PM 48.9 °F 44.1 °F 83% 30.19 in 10.0 mi Calm Calm - N/A   Clear